Terug naar catalogus

STARLINK-37671

ActiefCommunicatieVLEO
NORAD 69206·PAYLOAD·🇺🇸 United States

Gelanceerd May 25, 2026 vanaf Cape Canaveral Space Force Station

Loading…

Volgende Passages (komende 24 uur)

TLE

VersSource: CelesTrak SupGP

Epoch: Sep 15, 2026, 02:47 UTC

1 69206C 26114AA  26258.11645833  .00048501  00000+0  14328-2 0  2586
2 69206  53.1570 138.6608 0001328  80.7499 244.7887 15.34369281    12

Volg STARLINK-37671 in realtime met AllMySat

Download on the App Store